"Pseudo-MPEC" for P110Nmw

Created 2020 May 26 11:07:21 UT using Find_Orb

Click here for an explanation of pseudo-MPECs

 
 Astrometry: 
     P110Nmw  C2020 05 18)]!3_^rQmiZ)LF;#m^V]V!@E*o=7^Hu954wa?jPSMiG'6*7k%]OuF51
     P110Nmw  C2020 05 18,l:C*rC+,tl%eCYlyY5YIeT:j7jeC6AstrometryY@uO9rZymM%XF51
     P110Nmw  C2020 05 18J^$#q:7QV`dU`!ELx5_sredacted;052)IevvD.\2XSo+]UG!d.WF51
     P110Nmw  C2020 05 21c4UyMclickNcb:l2ZBb$P=a=unCjyZy!6dherecmMQL$+jgE\SYYF51
     P110Nmw  C2020 05 21o^c2y-m$wG8wN;euhxot)_a(unbforTdvyx*FV[GI2IQMhM*Ke%TF51
     P110Nmw  C2020 05 21J@\yixTSxL)Q$gx[Iy^[I5/7b%v3jUAnOXmV!qUMUexplanationF51

Station data:
(F51) Pan-STARRS 1, Haleakala  (N20.707235 W156.255910)  US/Hawaii.
   Observers N. Primak, A. Schultz, S. Watters, J. Thiel, T. Goggia. Measurer
   PS1 Science Consortium. 1.8-m Ritchey-Chrétien + CCD.

Orbital elements:  P110Nmw
   Perihelion 2021 May 25.166965 +/- 264 TT =  4:00:25 (JD 2459359.666965)
Epoch 2020 May 21.0 TT = JDT 2458990.5   Earth MOID: 0.7472   AutoNEOCP
M 210.55798834 +/- 120              (J2000 ecliptic)
n   0.40480873 +/- 0.181            Peri.  129.28276 +/- 80
a   1.80982312 +/- 0.54             Node   256.57054 +/- 9
e   0.0566237 +/- 0.243             Incl.   20.91451 +/- 18
P   2.43/889.29d           H 20.1   G  0.15   U 11.6  SR
q 1.70734422 +/- 0.527    Q 1.91230202 +/- 18.7
From 6 observations 2020 May 18-21; mean residual 0".13
Residuals in arcseconds: 
200518 F51  .21-  .16+    200518 F51  .14+  .18-    200521 F51  .11-  .08-    
200518 F51  .07+  .02+    200521 F51  .10+  .13-    200521 F51  .01+  .21+    

Ephemerides (geocentric):
Date (UTC) HH   RA              Dec         delta   r     elong  mag " sig PA
---- -- -- --  -------------   -----------  ------ ------ -----  --- ---- ---
2020 05 26 11  14 36 16.137   -31 27 49.70  .92699 1.8976 155.9 22.0  256  69
2020 05 26 12  14 36 13.970   -31 26 52.61  .92709 1.8976 155.9 22.0  259  69
2020 05 26 13  14 36 11.808   -31 25 55.52  .92718 1.8976 155.9 22.0  262  69
2020 05 26 14  14 36 09.650   -31 24 58.43  .92728 1.8975 155.8 22.0  266  69
2020 05 26 15  14 36 07.495   -31 24 01.33  .92737 1.8975 155.8 22.0  269  69
2020 05 26 16  14 36 05.345   -31 23 04.23  .92747 1.8975 155.8 22.1  273  69
2020 05 26 17  14 36 03.199   -31 22 07.13  .92757 1.8975 155.7 22.1  276  69
2020 05 26 18  14 36 01.057   -31 21 10.02  .92766 1.8975 155.7 22.1  279  69
2020 05 26 19  14 35 58.919   -31 20 12.92  .92776 1.8975 155.7 22.1  283  69
2020 05 26 20  14 35 56.786   -31 19 15.81  .92786 1.8974 155.6 22.1  286  69
2020 05 26 21  14 35 54.656   -31 18 18.70  .92796 1.8974 155.6 22.1  290  69
2020 05 26 22  14 35 52.530   -31 17 21.58  .92806 1.8974 155.6 22.1  293  69
2020 05 26 23  14 35 50.409   -31 16 24.47  .92816 1.8974 155.5 22.1  297  69
2020 05 27 00  14 35 48.292   -31 15 27.35  .92826 1.8974 155.5 22.1  301  69
2020 05 27 01  14 35 46.178   -31 14 30.23  .92836 1.8974 155.5 22.1  304  69
2020 05 27 02  14 35 44.069   -31 13 33.11  .92846 1.8974 155.4 22.1  308  69
2020 05 27 03  14 35 41.964   -31 12 35.99  .92856 1.8973 155.4 22.1  312  69
2020 05 27 04  14 35 39.863   -31 11 38.87  .92866 1.8973 155.4 22.1  315  69
2020 05 27 05  14 35 37.767   -31 10 41.74  .92876 1.8973 155.3 22.1  319  69
2020 05 27 06  14 35 35.674   -31 09 44.62  .92886 1.8973 155.3 22.1  323  69
2020 05 27 07  14 35 33.585   -31 08 47.49  .92897 1.8973 155.3 22.1  326  69
2020 05 27 08  14 35 31.501   -31 07 50.36  .92907 1.8973 155.2 22.1  330  69
2020 05 27 09  14 35 29.421   -31 06 53.24  .92917 1.8973 155.2 22.1  334  69
2020 05 27 10  14 35 27.345   -31 05 56.11  .92928 1.8972 155.2 22.1  338  69
2020 05 27 11  14 35 25.273   -31 04 58.98  .92938 1.8972 155.1 22.1  341  69
2020 05 27 12  14 35 23.205   -31 04 01.85  .92949 1.8972 155.1 22.1  345  69
2020 05 27 13  14 35 21.142   -31 03 04.72  .92959 1.8972 155.1 22.1  349  69
2020 05 27 14  14 35 19.082   -31 02 07.59  .92970 1.8972 155.0 22.1  353  69
2020 05 27 15  14 35 17.027   -31 01 10.45  .92980 1.8972 155.0 22.1  357  69
2020 05 27 16  14 35 14.976   -31 00 13.32  .92991 1.8971 155.0 22.1  361  69
2020 05 27 17  14 35 12.929   -30 59 16.19  .93002 1.8971 154.9 22.1  365  69
2020 05 27 18  14 35 10.886   -30 58 19.06  .93012 1.8971 154.9 22.1  369  69
2020 05 27 19  14 35 08.848   -30 57 21.93  .93023 1.8971 154.9 22.1  372  69
2020 05 27 20  14 35 06.813   -30 56 24.80  .93034 1.8971 154.8 22.1  376  69
2020 05 27 21  14 35 04.783   -30 55 27.67  .93045 1.8971 154.8 22.1  380  69
2020 05 27 22  14 35 02.757   -30 54 30.55  .93056 1.8971 154.7 22.1  384  69
2020 05 27 23  14 35 00.735   -30 53 33.42  .93067 1.8970 154.7 22.1  388  69
2020 05 28 00  14 34 58.717   -30 52 36.29  .93078 1.8970 154.7 22.1  393  69
2020 05 28 01  14 34 56.704   -30 51 39.17  .93089 1.8970 154.6 22.1  397  69
2020 05 28 02  14 34 54.695   -30 50 42.04  .93100 1.8970 154.6 22.1  401  69
2020 05 28 03  14 34 52.690   -30 49 44.92  .93111 1.8970 154.6 22.1  405  69
2020 05 28 04  14 34 50.689   -30 48 47.79  .93122 1.8970 154.5 22.1  409  69
2020 05 28 05  14 34 48.692   -30 47 50.67  .93133 1.8970 154.5 22.1  413  69
2020 05 28 06  14 34 46.700   -30 46 53.56  .93144 1.8969 154.5 22.1  417  69
2020 05 28 07  14 34 44.711   -30 45 56.44  .93155 1.8969 154.4 22.1  421  69
2020 05 28 08  14 34 42.728   -30 44 59.32  .93167 1.8969 154.4 22.1  426  69
2020 05 28 09  14 34 40.748   -30 44 02.21  .93178 1.8969 154.4 22.1  430  69
2020 05 28 10  14 34 38.772   -30 43 05.10  .93189 1.8969 154.3 22.1  434  69